Location: Bonaustraße
(48.4603°N, 11.9280°E)
Time: 22:28:39
(UTC+02:00)

AO-92 - Pass Details

Date: 29 July 2021
Orbit: 484 x 494 km, 97.4° (Epoch: 17 September)

Event Time Altitude Azimuth Distance (km) Brightness Sun altitude
Exits shadow 22:24:50 19° 117° (ESE) 1,197 ? -12.6°
Maximum altitude 22:26:40 31° 69° (ENE) 876 ? -12.8°
Drops below altitude 10° 22:29:53 10° 6° (N) 1,678 ? -13.2°
Sets 22:32:06 0° 356° (N) 2,564 ? -13.4°
